Location: Unspecified
(0.0000°N, 0.0000°E)
Time: 21:28:34
(UTC+00:00)

STARLINK-1033 - Pass Details

Date: 19 January 2020
Orbit: 548 x 551 km, 53.0° (Epoch: 29 September)

Event Time Altitude Azimuth Distance (km) Brightness Sun altitude
Rises 17:51:06 0° 293° (WNW) 2,719 8.0 4.5°
Reaches altitude 10° 17:54:16 10° 268° (W) 1,829 8.0 3.8°
Drops below altitude 10° 17:58:43 10° 202° (SSW) 1,833 7.0 2.7°
Enters shadow 18:27:37 -53° 133° (SE) 10,905 10.1 -4.0°
Exits shadow 18:36:19 -68° 115° (ESE) 12,417 10.4 -6.1°
Maximum altitude 04:14:47 37° 124° (SE) 850 5.0 -26.9°
